TimeAST,TemperatureF,Dew PointF,Humidity,Sea Level PressureIn,VisibilityMPH,Wind Direction,Wind SpeedMPH,Gust SpeedMPH,PrecipitationIn,Events,Conditions,WindDirDegrees,DateUTC
12:00 AM,89.6,77.0,66,29.71,3.7,NNE,3.5,-,N/A,,Unknown,30,2012-09-23 21:00:00
12:30 AM,87.8,77.0,70,29.68,3.7,NE,3.5,-,N/A,,Unknown,40,2012-09-23 21:30:00
1:00 AM,87.8,77.0,70,29.68,4.3,ENE,3.5,-,N/A,,Unknown,60,2012-09-23 22:00:00
1:30 AM,87.8,77.0,70,29.68,4.3,NE,3.5,-,N/A,,Unknown,50,2012-09-23 22:30:00
2:00 AM,87.8,78.8,75,29.68,4.3,ENE,4.6,-,N/A,,Unknown,60,2012-09-23 23:00:00
2:30 AM,87.8,75.2,66,29.65,4.3,East,6.9,-,N/A,,Unknown,90,2012-09-23 23:30:00
3:00 AM,87,76,62,29.68,4,East,3.5,,,,Haze,80,2012-09-24 00:00:00
3:00 AM,86.0,75.2,70,29.68,4.3,East,3.5,-,N/A,,Unknown,80,2012-09-24 00:00:00
3:30 AM,86.0,77.0,74,29.68,4.3,Variable,2.3,-,N/A,,Unknown,0,2012-09-24 00:30:00
4:00 AM,87.8,77.0,70,29.68,4.3,Variable,2.3,-,N/A,,Unknown,0,2012-09-24 01:00:00
4:30 AM,87.8,77.0,70,29.68,4.3,Calm,Calm,-,N/A,,Unknown,0,2012-09-24 01:30:00
5:00 AM,86.0,77.0,74,29.71,3.7,WSW,4.6,-,N/A,,Unknown,240,2012-09-24 02:00:00
5:30 AM,86.0,75.2,70,29.71,3.1,West,4.6,-,N/A,,Haze,270,2012-09-24 02:30:00
6:00 AM,86.0,77.0,74,29.74,2.8,West,4.6,-,N/A,,Haze,260,2012-09-24 03:00:00
7:00 AM,87.8,77.0,70,29.74,3.1,WSW,3.5,-,N/A,,Haze,250,2012-09-24 04:00:00
7:30 AM,89.6,77.0,66,29.77,3.1,West,5.8,-,N/A,,Haze,270,2012-09-24 04:30:00
8:00 AM,91.4,77.0,63,29.77,3.1,WNW,6.9,-,N/A,,Smoke,300,2012-09-24 05:00:00
8:30 AM,91.4,77.0,63,29.77,4.3,NW,6.9,-,N/A,,Unknown,310,2012-09-24 05:30:00
9:00 AM,93,76,49,29.79,5,NNW,9.2,,,,Smoke,330,2012-09-24 06:00:00
9:30 AM,93.2,75.2,56,29.77,5.6,NNW,5.8,-,N/A,,Unknown,340,2012-09-24 06:30:00
10:00 AM,95.0,75.2,53,29.77,-9999.0,North,6.9,-,N/A,,Clear,10,2012-09-24 07:00:00
10:30 AM,95.0,71.6,47,29.77,-9999.0,North,8.1,-,N/A,,Clear,350,2012-09-24 07:30:00
11:00 AM,95.0,71.6,47,29.77,-9999.0,North,8.1,-,N/A,,Clear,10,2012-09-24 08:00:00
11:30 AM,96.8,69.8,41,29.74,-9999.0,NNE,6.9,-,N/A,,Clear,20,2012-09-24 08:30:00
12:00 PM,98.6,68.0,37,29.74,-9999.0,NNE,8.1,-,N/A,,Clear,20,2012-09-24 09:00:00
12:30 PM,98.6,64.4,32,29.74,-9999.0,North,6.9,-,N/A,,Clear,10,2012-09-24 09:30:00
1:00 PM,98.6,64.4,32,29.71,-9999.0,NNE,10.4,-,N/A,,Clear,20,2012-09-24 10:00:00
1:30 PM,100.4,62.6,29,29.71,-9999.0,North,9.2,-,N/A,,Clear,10,2012-09-24 10:30:00
2:00 PM,100.4,55.4,22,29.68,-9999.0,North,9.2,-,N/A,,Clear,360,2012-09-24 11:00:00
2:30 PM,102.2,50.0,17,29.68,-9999.0,North,8.1,-,N/A,,Clear,10,2012-09-24 11:30:00
3:00 PM,99,66,25,29.70,9,East,9.2,,,,,80,2012-09-24 12:00:00
3:00 PM,98.6,66.2,35,29.68,-9999.0,East,9.2,-,N/A,,Clear,80,2012-09-24 12:00:00
3:30 PM,96.8,71.6,44,29.68,-9999.0,East,8.1,-,N/A,,Clear,90,2012-09-24 12:30:00
4:00 PM,95.0,73.4,49,29.68,-9999.0,North,-9999.0,-,N/A,,Clear,0,2012-09-24 13:00:00
4:30 PM,95.0,73.4,49,29.68,-9999.0,East,6.9,-,N/A,,Clear,90,2012-09-24 13:30:00
5:00 PM,93.2,73.4,52,29.68,-9999.0,East,5.8,-,N/A,,Clear,80,2012-09-24 14:00:00
5:30 PM,93.2,73.4,52,29.68,5.6,East,5.8,-,N/A,,Unknown,90,2012-09-24 14:30:00
6:00 PM,91.4,75.2,59,29.71,5.6,East,6.9,-,N/A,,Unknown,90,2012-09-24 15:00:00
6:30 PM,91.4,75.2,59,29.71,-9999.0,NE,4.6,-,N/A,,Clear,50,2012-09-24 15:30:00
7:00 PM,91.4,75.2,59,29.71,-9999.0,North,6.9,-,N/A,,Clear,10,2012-09-24 16:00:00
7:30 PM,91.4,77.0,63,29.74,-9999.0,North,10.4,-,N/A,,Clear,360,2012-09-24 16:30:00
8:00 PM,91.4,73.4,55,29.74,-9999.0,NE,4.6,-,N/A,,Clear,40,2012-09-24 17:00:00
8:30 PM,91.4,75.2,59,29.74,-9999.0,North,6.9,-,N/A,,Clear,350,2012-09-24 17:30:00
9:00 PM,91,71,42,29.75,7,NNW,11.5,,,,,340,2012-09-24 18:00:00
9:00 PM,91.4,69.8,49,29.74,-9999.0,NNW,11.5,-,N/A,,Clear,340,2012-09-24 18:00:00
9:30 PM,91.4,75.2,59,29.74,-9999.0,NW,8.1,-,N/A,,Clear,320,2012-09-24 18:30:00
10:00 PM,89.6,77.0,66,29.74,-9999.0,NNW,8.1,-,N/A,,Clear,330,2012-09-24 19:00:00
10:30 PM,89.6,73.4,59,29.71,-9999.0,NNW,8.1,-,N/A,,Clear,340,2012-09-24 19:30:00
11:00 PM,89.6,77.0,66,29.71,-9999.0,NNW,8.1,-,N/A,,Clear,340,2012-09-24 20:00:00
11:30 PM,89.6,75.2,62,29.71,-9999.0,North,9.2,-,N/A,,Clear,350,2012-09-24 20:30:00